Regional Weather Roundup
Issued by NWS

Home | Current Version | Previous Version | Graphics & Text | Print | Product List | Glossary On
Versions: 1 2 3 4 5 6 7 8 9 10 11 12 13 14 15 16 17 18 19 20 21 22 23 24 25 26 27 28 29 30 31 32 33 34 35 36 37 38 39 40 41 42 43 44 45 46 47 48 49 50
000
ASUS45 KABQ 292210
RWRNM
NEW MEXICO REGIONAL WEATHER ROUNDUP
NATIONAL WEATHER SERVICE ALBUQUERQUE NM
400 PM MDT MON MAY 29 2017

NOTE: "FAIR" MEANS FEW OR NO CLOUDS BELOW 12,000 FEET AGL WITH NO
       SIGNIFICANT WEATHER OR OBSTRUCTIONS TO VISION.

      THIS PRODUCT IS RELEASED AS TWO VERSIONS.  ONE VERSION NEAR
      THE TOP OF THE HOUR CONTAINING PRELIMINARY DATA FROM ALBUQUERQUE
      AND OTHER STATIONS.  A FINAL VERSION WITH ADDITIONAL DATA IS
      ISSUED ABOUT 10 MINUTES AFTER THE HOUR.

NMZ501-503-504-510>518-292300-
NORTHWEST PLATEAU/NORTHCENTRAL MOUNTAINS

CITY           SKY/WX    TMP DP  RH WIND       PRES   REMARKS
FARMINGTON     FAIR      79  12   8 NW6       30.08F
LOS ALAMOS     CLOUDY    56  37  48 N14G22    30.26F
SANTA FE       FAIR      71  34  25 N17G25    30.18S
TAOS           FAIR      68  28  22 SW17G23   30.23F
ANGEL FIRE     FAIR      57  34  42 S6        30.28F

$$
NMZ402-403-502-505>509-292300-
WESTCENTRAL MOUNTAINS/SOUTHWEST MOUNTAINS

CITY           SKY/WX    TMP DP  RH WIND       PRES   REMARKS
GALLUP         FAIR      79  22  12 NW8G17    30.13F
GRANTS         FAIR      70  29  21 CALM      30.20F
SILVER CITY    FAIR      83  32  15 SE8G18    30.08F

$$
NMZ407-409-411-412-292300-
SOUTHERN DESERTS

CITY           SKY/WX    TMP DP  RH WIND       PRES   REMARKS
DEMING         FAIR      90  29  11 SE8G24    29.99F
LAS CRUCES     FAIR      89  33  13 E12G21    30.03F
HOLLOMAN AFB   FAIR      88  28  11 SW13G21   30.04F
ALAMOGORDO     FAIR      86  32  14 SE18      30.02F
T OR C         FAIR      81  29  15 NW16      30.07S

$$
NMZ519>523-292300-
CENTRAL VALLEYS/CENTRAL HIGHLANDS

CITY           SKY/WX    TMP DP  RH WIND       PRES   REMARKS
ALBUQUERQUE    CLOUDY    75  31  19 NW30G38   30.16R
DOUBLE EAGLE   TSTM      61  43  51 W31G40    30.20R
MORIARTY ARPT  PTSUNNY   72  37  28 SE28      30.16S
CLINES CORNERS PTSUNNY   66  36  32 S23G29    30.21S
BELEN          CLOUDY    68  34  28 SE25G35   30.13F
SOCORRO        PTSUNNY   78  31  17 N17G28    30.10R

$$
NMZ524>526-539-540-292300-
SOUTHCENTRAL MOUNTAINS

CITY           SKY/WX    TMP DP  RH WIND       PRES   REMARKS
RUIDOSO        FAIR      68  32  26 S17G26    30.25F

$$
NMZ527>531-292300-
NORTHEAST HIGHLANDS/NORTHEAST PLAINS

CITY           SKY/WX    TMP DP  RH WIND       PRES   REMARKS
LAS VEGAS      PTSUNNY   51  44  77 SE13      30.26S
RATON          LGT RAIN  60  37  42 SW23      30.21R
CLAYTON        FAIR      72  40  31 S14       30.14F

$$
NMZ532>537-292300-
EASTCENTRAL PLAINS

CITY           SKY/WX    TMP DP  RH WIND       PRES   REMARKS
SANTA ROSA     TSTM      66  44  45 S21G35    30.16R
TUCUMCARI      FAIR      80  36  20 S13       30.06F
CANNON AFB     FAIR      82  34  17 S20G35    30.11F
CLOVIS AIRPORT FAIR      82  37  20 S13G18    30.11F

$$
NMZ028-029-538-292300-
SOUTHEAST PLAINS

CITY           SKY/WX    TMP DP  RH WIND       PRES   REMARKS
ROSWELL        FAIR      86  38  18 SE15G24   30.05F
ARTESIA        FAIR      86  37  17 SE15      30.05F
CARLSBAD       FAIR      86  37  17 E8G23     30.01F
HOBBS          SUNNY     84  32  15 E14G22    30.08F


$$



USA.gov is the U.S. government's official web portal to all federal, state and local government web resources and services.